Regional Weather Roundup
Issued by NWS

Home | Current Version | Previous Version | Text Only | Print | Product List | Glossary Off
Versions: 1 2 3 4 5 6 7 8 9 10 11 12 13 14 15 16 17 18 19 20 21 22 23 24 25 26 27 28 29 30 31 32 33 34 35 36 37 38 39 40 41 42 43 44 45 46 47 48 49 50

000
ASUS43 KFSD 232002
RWRSD

WEATHER ROUNDUP FOR SOUTH DAKOTA
NATIONAL WEATHER SERVICE SIOUX FALLS SD
300 PM CDT WED JUL 23 2014

NOTE: "FAIR" INDICATES FEW OR NO CLOUDS BELOW 12,000 FEET WITH NO
SIGNIFICANT WEATHER AND/OR OBSTRUCTIONS TO VISIBILITY.


SDZ001>005-009-010-012>017-232100-
NORTHWEST AND NORTH CENTRAL SOUTH DAKOTA

CITY           SKY/WX    TMP DP  RH WIND       PRES   REMARKS
BUFFALO          N/A     84  62  47 E16G25    30.10F
FAITH            N/A     82  61  48 SE21G30   30.17F
MOBRIDGE       SUNNY     81  59  47 SE14G23   30.20F
$$

SDZ012>016-024>037-041>051-057-063-072>074-232100-
SOUTHWEST AND SOUTH CENTRAL SOUTH DAKOTA

CITY           SKY/WX    TMP DP  RH WIND       PRES   REMARKS
RAPID CTY ARPT SUNNY     81  63  54 SE17      30.19F
PIERRE         SUNNY     86  54  33 SE20G29   30.19F
CUSTER         SUNNY     80  55  42 S10G23    30.33F
ELLSWORTH AFB  MOSUNNY   83  64  53 SE17      30.19F
PHILIP         SUNNY     91  59  33 SW9       30.15F
PINE RIDGE     SUNNY     87  65  47 VRB7      30.19F
WINNER         FAIR      86  52  30 SE12G17   30.22F
$$

SDZ004>011-016>023-039-040-232100-
NORTHEAST SOUTH DAKOTA

CITY           SKY/WX    TMP DP  RH WIND       PRES   REMARKS
ABERDEEN       CLOUDY    78  55  44 SE7       30.25F
WATERTOWN      MOSUNNY   78  52  40 VRB3      30.27F
SISSETON         N/A     79  57  46 VRB3      30.25F
$$

SDZ017-020-022-023-036>040-048>070-232100-
SOUTHEAST SOUTH DAKOTA

CITY           SKY/WX    TMP DP  RH WIND       PRES   REMARKS
SIOUX FALLS    MOSUNNY   80  58  46 NE9       30.24F
HURON          SUNNY     81  54  39 E8        30.23F
CHAMBERLAIN    SUNNY     83  53  34 SE10      30.22F
MITCHELL       SUNNY     82  58  43 E8        30.23F
YANKTON        SUNNY     79  57  47 E7        30.23F
$$

ABBREVIATIONS USED IN REMARKS
   TC - TEMPERATURE IN CELSIUS
  WCI - WIND CHILL INDEX
   HX - HEAT INDEX
  VSB - VISIBILITY




USA.gov is the U.S. government's official web portal to all federal, state and local government web resources and services.